Year,Month,Day,Hour,Minute,Value (Times are PST for temperature in C)
2016,09,18,08,50,12.00
2016,09,18,08,51,12.00
2016,09,18,08,52,12.10
2016,09,18,08,53,12.10
2016,09,18,08,54,12.00
2016,09,18,08,55,12.00
2016,09,18,08,56,12.00
2016,09,18,08,57,12.00
2016,09,18,08,58,11.90
2016,09,18,08,59,11.90
2016,09,18,09,00,11.90
2016,09,18,09,01,11.90
2016,09,18,09,02,11.90
2016,09,18,09,03,11.90
2016,09,18,09,04,11.80
2016,09,18,09,05,11.80
2016,09,18,09,06,11.80
2016,09,18,09,07,11.90
2016,09,18,09,08,11.90
2016,09,18,09,09,11.90
2016,09,18,09,10,11.90
2016,09,18,09,11,11.90
2016,09,18,09,12,11.90
2016,09,18,09,13,11.90
2016,09,18,09,14,11.90
2016,09,18,09,15,11.90
2016,09,18,09,16,11.90
2016,09,18,09,17,11.90
2016,09,18,09,18,11.90
2016,09,18,09,19,11.90
2016,09,18,09,20,11.90
2016,09,18,09,21,11.90
2016,09,18,09,22,12.00
2016,09,18,09,23,12.00
2016,09,18,09,24,12.00
2016,09,18,09,25,12.10
2016,09,18,09,26,12.10
2016,09,18,09,27,12.20
2016,09,18,09,28,12.20
2016,09,18,09,29,12.20
2016,09,18,09,30,12.30
2016,09,18,09,31,12.30
2016,09,18,09,32,12.40
2016,09,18,09,33,12.50
2016,09,18,09,34,12.60
2016,09,18,09,35,12.70
2016,09,18,09,36,12.80
2016,09,18,09,37,12.90
2016,09,18,09,38,13.00
2016,09,18,09,39,13.10
2016,09,18,09,40,13.30
2016,09,18,09,41,13.40
2016,09,18,09,42,13.50
2016,09,18,09,43,13.60
2016,09,18,09,44,13.60
2016,09,18,09,45,13.70
2016,09,18,09,46,13.80
2016,09,18,09,47,13.80
2016,09,18,09,48,13.90
2016,09,18,09,49,13.90
2016,09,18,09,50,14.00
2016,09,18,09,51,14.00
2016,09,18,09,52,14.10
2016,09,18,09,53,14.30
2016,09,18,09,54,14.40
2016,09,18,09,55,14.50
2016,09,18,09,56,14.60
2016,09,18,09,57,14.70
2016,09,18,09,58,14.80
2016,09,18,09,59,14.90
2016,09,18,10,00,15.00
2016,09,18,10,01,15.10
2016,09,18,10,02,15.20
2016,09,18,10,03,15.20
2016,09,18,10,04,15.30
2016,09,18,10,05,15.40
2016,09,18,10,06,15.40
2016,09,18,10,07,15.50
2016,09,18,10,08,15.50
2016,09,18,10,09,15.60
2016,09,18,10,10,15.50
2016,09,18,10,11,15.50
2016,09,18,10,12,15.50
2016,09,18,10,13,15.60
2016,09,18,10,14,15.60
2016,09,18,10,15,15.60
2016,09,18,10,16,15.60
2016,09,18,10,17,15.70
2016,09,18,10,18,15.70
2016,09,18,10,19,15.80
2016,09,18,10,20,15.80
2016,09,18,10,21,15.90
2016,09,18,10,22,15.90
2016,09,18,10,23,15.90
2016,09,18,10,24,16.00
2016,09,18,10,25,15.90
2016,09,18,10,26,15.90
2016,09,18,10,27,16.00
2016,09,18,10,28,16.00
2016,09,18,10,29,16.00
2016,09,18,10,30,16.10
2016,09,18,10,31,16.10
2016,09,18,10,32,16.20
2016,09,18,10,33,16.20
2016,09,18,10,34,16.20
2016,09,18,10,35,16.30
2016,09,18,10,36,16.30
2016,09,18,10,37,16.40
2016,09,18,10,38,16.40
2016,09,18,10,39,16.50
2016,09,18,10,40,16.50
2016,09,18,10,41,16.50
2016,09,18,10,42,16.50
2016,09,18,10,43,16.60
2016,09,18,10,44,16.60
2016,09,18,10,45,16.60
2016,09,18,10,46,16.60
2016,09,18,10,47,16.60
2016,09,18,10,48,16.60
2016,09,18,10,49,16.60
2016,09,18,10,50,16.50
2016,09,18,10,51,16.50
2016,09,18,10,52,16.40
2016,09,18,10,53,16.40
2016,09,18,10,54,16.30
2016,09,18,10,55,16.30
2016,09,18,10,56,16.20
2016,09,18,10,57,16.20
2016,09,18,10,58,16.20
2016,09,18,10,59,16.20
2016,09,18,11,00,16.20
2016,09,18,11,01,16.30
2016,09,18,11,02,16.40
2016,09,18,11,03,16.40
2016,09,18,11,04,16.40
2016,09,18,11,05,16.40
2016,09,18,11,06,16.40
2016,09,18,11,07,16.40
2016,09,18,11,08,16.40
2016,09,18,11,09,16.40
2016,09,18,11,10,16.40
2016,09,18,11,11,16.40
2016,09,18,11,12,16.40
2016,09,18,11,13,16.50
2016,09,18,11,14,16.50
2016,09,18,11,15,16.60
2016,09,18,11,16,16.60
2016,09,18,11,17,16.60
2016,09,18,11,18,16.60
2016,09,18,11,19,16.50
2016,09,18,11,20,16.50
2016,09,18,11,21,16.50
2016,09,18,11,22,16.50
2016,09,18,11,23,16.60
2016,09,18,11,24,16.60
2016,09,18,11,25,16.60
2016,09,18,11,26,16.70
2016,09,18,11,27,16.70
2016,09,18,11,28,16.70
2016,09,18,11,29,16.70
2016,09,18,11,30,16.80
2016,09,18,11,31,16.80
2016,09,18,11,32,16.90
2016,09,18,11,33,16.90
2016,09,18,11,34,16.90
2016,09,18,11,35,17.00
2016,09,18,11,36,17.00
2016,09,18,11,37,17.10
2016,09,18,11,38,17.10
2016,09,18,11,39,17.10
2016,09,18,11,40,17.10
2016,09,18,11,41,17.10
2016,09,18,11,42,17.10
2016,09,18,11,43,17.10
2016,09,18,11,44,17.10
2016,09,18,11,45,17.10
2016,09,18,11,46,17.00
2016,09,18,11,47,17.00
2016,09,18,11,48,17.10
2016,09,18,11,49,17.10
2016,09,18,11,50,17.20
2016,09,18,11,51,17.30
2016,09,18,11,52,17.30
2016,09,18,11,53,17.30
2016,09,18,11,54,17.30
2016,09,18,11,55,17.30
2016,09,18,11,56,17.20
2016,09,18,11,57,17.20
2016,09,18,11,58,17.30
2016,09,18,11,59,17.30
2016,09,18,12,00,17.20
2016,09,18,12,01,17.20
2016,09,18,12,02,17.20
2016,09,18,12,03,17.20
2016,09,18,12,04,17.30
2016,09,18,12,05,17.30
2016,09,18,12,06,17.30
2016,09,18,12,07,17.30
2016,09,18,12,08,17.30
2016,09,18,12,09,17.30
2016,09,18,12,10,17.30
2016,09,18,12,11,17.30
2016,09,18,12,12,17.30
2016,09,18,12,13,17.30
2016,09,18,12,14,17.30
2016,09,18,12,15,17.30
2016,09,18,12,16,17.30
2016,09,18,12,17,17.40
2016,09,18,12,18,17.40
2016,09,18,12,19,17.40
2016,09,18,12,20,17.50
2016,09,18,12,21,17.60
2016,09,18,12,22,17.60
2016,09,18,12,23,17.60
2016,09,18,12,24,17.60
2016,09,18,12,25,17.70
2016,09,18,12,26,17.70
2016,09,18,12,27,17.70
2016,09,18,12,28,17.80
2016,09,18,12,29,17.80
2016,09,18,12,30,17.80
2016,09,18,12,31,17.90
2016,09,18,12,32,18.00
2016,09,18,12,33,18.00
2016,09,18,12,34,17.90
2016,09,18,12,35,17.90
2016,09,18,12,36,17.90
2016,09,18,12,37,18.00
2016,09,18,12,38,18.00
2016,09,18,12,39,18.00
2016,09,18,12,40,18.00
2016,09,18,12,41,17.90
2016,09,18,12,42,17.90
2016,09,18,12,43,18.00
2016,09,18,12,44,18.00
2016,09,18,12,45,18.10
2016,09,18,12,46,18.20
2016,09,18,12,47,18.20
2016,09,18,12,48,18.20
2016,09,18,12,49,18.20
2016,09,18,12,50,18.10
2016,09,18,12,51,18.10
2016,09,18,12,52,18.10
2016,09,18,12,53,18.10
2016,09,18,12,54,18.10
2016,09,18,12,55,18.10
2016,09,18,12,56,18.10
2016,09,18,12,57,18.10
2016,09,18,12,58,18.10
2016,09,18,12,59,18.10
2016,09,18,13,00,18.20
2016,09,18,13,01,18.20
2016,09,18,13,02,18.20
2016,09,18,13,03,18.20
2016,09,18,13,04,18.20
2016,09,18,13,05,18.20
2016,09,18,13,06,18.30
2016,09,18,13,07,18.30
2016,09,18,13,08,18.30
2016,09,18,13,09,18.30
2016,09,18,13,10,18.30
2016,09,18,13,11,18.30
2016,09,18,13,12,18.30
2016,09,18,13,13,18.30
2016,09,18,13,14,18.30
2016,09,18,13,15,18.30
2016,09,18,13,16,18.30
2016,09,18,13,17,18.30
2016,09,18,13,18,18.40
2016,09,18,13,19,18.40
2016,09,18,13,20,18.40
2016,09,18,13,21,18.50
2016,09,18,13,22,18.60
2016,09,18,13,23,18.60
2016,09,18,13,24,18.70
2016,09,18,13,25,18.70
2016,09,18,13,26,18.80
2016,09,18,13,27,18.90
2016,09,18,13,28,18.90
2016,09,18,13,29,18.90
2016,09,18,13,30,18.90
2016,09,18,13,31,18.90
2016,09,18,13,32,18.90
2016,09,18,13,33,19.00
2016,09,18,13,34,19.10
2016,09,18,13,35,19.10
2016,09,18,13,36,19.10
2016,09,18,13,37,19.10
2016,09,18,13,38,19.00
2016,09,18,13,39,19.00
2016,09,18,13,40,18.90
2016,09,18,13,41,18.90
2016,09,18,13,42,18.90
2016,09,18,13,43,18.90
2016,09,18,13,44,18.90
2016,09,18,13,45,19.00
2016,09,18,13,46,19.00
2016,09,18,13,47,19.10
2016,09,18,13,48,19.10
2016,09,18,13,49,19.20
2016,09,18,13,50,19.30
2016,09,18,13,51,19.30
2016,09,18,13,52,19.30
2016,09,18,13,53,19.30
2016,09,18,13,54,19.30
2016,09,18,13,55,19.30
2016,09,18,13,56,19.30
2016,09,18,13,57,19.30
2016,09,18,13,58,19.20
2016,09,18,13,59,19.30
2016,09,18,14,00,19.30
2016,09,18,14,01,19.30
2016,09,18,14,02,19.40
2016,09,18,14,03,19.40
2016,09,18,14,04,19.40
2016,09,18,14,05,19.40
2016,09,18,14,06,19.40
2016,09,18,14,07,19.40
2016,09,18,14,08,19.40
2016,09,18,14,09,19.30
2016,09,18,14,10,19.30
2016,09,18,14,11,19.20
2016,09,18,14,12,19.20
2016,09,18,14,13,19.00
2016,09,18,14,14,18.90
2016,09,18,14,15,18.70
2016,09,18,14,16,18.50
2016,09,18,14,17,18.30
2016,09,18,14,18,18.30
2016,09,18,14,19,18.20
2016,09,18,14,20,18.20
2016,09,18,14,21,18.20
2016,09,18,14,22,18.20
2016,09,18,14,23,18.30
2016,09,18,14,24,18.30
2016,09,18,14,25,18.30
2016,09,18,14,26,18.40
2016,09,18,14,27,18.40
2016,09,18,14,28,18.50
2016,09,18,14,29,18.50
2016,09,18,14,30,18.60
2016,09,18,14,31,18.60
2016,09,18,14,32,18.60
2016,09,18,14,33,18.60
2016,09,18,14,34,18.60
2016,09,18,14,35,18.70
2016,09,18,14,36,18.70
2016,09,18,14,37,18.70
2016,09,18,14,38,18.70
2016,09,18,14,39,18.70
2016,09,18,14,40,18.70
2016,09,18,14,41,18.60
2016,09,18,14,42,18.60
2016,09,18,14,43,18.60
2016,09,18,14,44,18.60
2016,09,18,14,45,18.60
2016,09,18,14,46,18.70
2016,09,18,14,47,18.70
2016,09,18,14,48,18.70
2016,09,18,14,49,18.80
2016,09,18,14,50,18.80
2016,09,18,14,51,18.80
2016,09,18,14,52,18.80
2016,09,18,14,53,18.80
2016,09,18,14,54,18.80
2016,09,18,14,55,18.80
2016,09,18,14,56,18.80
2016,09,18,14,57,18.80
2016,09,18,14,58,18.80
2016,09,18,14,59,18.80
2016,09,18,15,00,18.80
2016,09,18,15,01,18.80
2016,09,18,15,02,18.70
2016,09,18,15,03,18.70
2016,09,18,15,04,18.60
2016,09,18,15,05,18.60
2016,09,18,15,06,18.50
2016,09,18,15,07,18.40
2016,09,18,15,08,18.40
2016,09,18,15,09,18.30
2016,09,18,15,10,18.30
2016,09,18,15,11,18.30
2016,09,18,15,12,18.20
2016,09,18,15,13,18.20
2016,09,18,15,14,18.20
2016,09,18,15,15,18.10
2016,09,18,15,16,18.10
2016,09,18,15,17,18.10
2016,09,18,15,18,18.00
2016,09,18,15,19,18.00
2016,09,18,15,20,18.00
2016,09,18,15,21,17.90
2016,09,18,15,22,17.90
2016,09,18,15,23,17.90
2016,09,18,15,24,18.00
2016,09,18,15,25,18.00
2016,09,18,15,26,18.10
2016,09,18,15,27,18.10
2016,09,18,15,28,18.20
2016,09,18,15,29,18.30
2016,09,18,15,30,18.40
2016,09,18,15,31,18.50
2016,09,18,15,32,18.50
2016,09,18,15,33,18.60
2016,09,18,15,34,18.60
2016,09,18,15,35,18.70
2016,09,18,15,36,18.70
2016,09,18,15,37,18.70
2016,09,18,15,38,18.80
2016,09,18,15,39,18.80
2016,09,18,15,40,18.80
2016,09,18,15,41,18.70
2016,09,18,15,42,18.70
2016,09,18,15,43,18.70
2016,09,18,15,44,18.70
2016,09,18,15,45,18.70
2016,09,18,15,46,18.60
2016,09,18,15,47,18.60
2016,09,18,15,48,18.60
2016,09,18,15,49,18.60
2016,09,18,15,50,18.60
2016,09,18,15,51,18.60
2016,09,18,15,52,18.60
2016,09,18,15,53,18.60
2016,09,18,15,54,18.60
2016,09,18,15,55,18.60
2016,09,18,15,56,18.60
2016,09,18,15,57,18.60
2016,09,18,15,58,18.60
2016,09,18,15,59,18.60
2016,09,18,16,00,18.60
2016,09,18,16,01,18.60
2016,09,18,16,02,18.60
2016,09,18,16,03,18.60
2016,09,18,16,04,18.60
2016,09,18,16,05,18.60
2016,09,18,16,06,18.60
2016,09,18,16,07,18.60
2016,09,18,16,08,18.60
2016,09,18,16,09,18.60
2016,09,18,16,10,18.60
2016,09,18,16,11,18.70
2016,09,18,16,12,18.70
2016,09,18,16,13,18.80
2016,09,18,16,14,18.80
2016,09,18,16,15,18.80
2016,09,18,16,16,18.90
2016,09,18,16,17,18.90
2016,09,18,16,18,18.90
2016,09,18,16,19,18.90
2016,09,18,16,20,18.90
2016,09,18,16,21,18.90
2016,09,18,16,22,18.80
2016,09,18,16,23,18.80
2016,09,18,16,24,18.70
2016,09,18,16,25,18.70
2016,09,18,16,26,18.70
2016,09,18,16,27,18.70
2016,09,18,16,28,18.60
2016,09,18,16,29,18.70
2016,09,18,16,30,18.70
2016,09,18,16,31,18.70
2016,09,18,16,32,18.70
2016,09,18,16,33,18.70
2016,09,18,16,34,18.70
2016,09,18,16,35,18.70
2016,09,18,16,36,18.70
2016,09,18,16,37,18.70
2016,09,18,16,38,18.70
2016,09,18,16,39,18.70
2016,09,18,16,40,18.60
2016,09,18,16,41,18.60
2016,09,18,16,42,18.50
2016,09,18,16,43,18.50
2016,09,18,16,44,18.40
2016,09,18,16,45,18.40
2016,09,18,16,46,18.40
2016,09,18,16,47,18.40
2016,09,18,16,48,18.40
2016,09,18,16,49,18.40
2016,09,18,16,50,18.40
2016,09,18,16,51,18.40
2016,09,18,16,52,18.40
2016,09,18,16,53,18.50
2016,09,18,16,54,18.50
2016,09,18,16,55,18.40
2016,09,18,16,56,18.50
2016,09,18,16,57,18.50
2016,09,18,16,58,18.50
2016,09,18,16,59,18.60
2016,09,18,17,00,18.50
2016,09,18,17,01,18.40
2016,09,18,17,02,18.40
2016,09,18,17,03,18.40
2016,09,18,17,04,18.30
2016,09,18,17,05,18.30
2016,09,18,17,06,18.30
2016,09,18,17,07,18.30
2016,09,18,17,08,18.30
2016,09,18,17,09,18.30
2016,09,18,17,10,18.30
2016,09,18,17,11,18.30
2016,09,18,17,12,18.30
2016,09,18,17,13,18.30
2016,09,18,17,14,18.30
2016,09,18,17,15,18.30
2016,09,18,17,16,18.30
2016,09,18,17,17,18.30
2016,09,18,17,18,18.30
2016,09,18,17,19,18.30
2016,09,18,17,20,18.30
2016,09,18,17,21,18.30
2016,09,18,17,22,18.30
2016,09,18,17,23,18.20
2016,09,18,17,24,18.20
2016,09,18,17,25,18.10
2016,09,18,17,26,18.10
2016,09,18,17,27,18.10
2016,09,18,17,28,18.10
2016,09,18,17,29,18.10
2016,09,18,17,30,18.00
2016,09,18,17,31,18.00
2016,09,18,17,32,18.00
2016,09,18,17,33,18.00
2016,09,18,17,34,18.00
2016,09,18,17,35,18.00
2016,09,18,17,36,18.00
2016,09,18,17,37,17.90
2016,09,18,17,38,17.90
2016,09,18,17,39,17.90
2016,09,18,17,40,17.90
2016,09,18,17,41,17.80
2016,09,18,17,42,17.80
2016,09,18,17,43,17.80
2016,09,18,17,44,17.70
2016,09,18,17,45,17.70
2016,09,18,17,46,17.60
2016,09,18,17,47,17.50
2016,09,18,17,48,17.50
2016,09,18,17,49,17.50
2016,09,18,17,50,17.50
2016,09,18,17,51,17.50
2016,09,18,17,52,17.50
2016,09,18,17,53,17.50
2016,09,18,17,54,17.50
2016,09,18,17,55,17.50
2016,09,18,17,56,17.50
2016,09,18,17,57,17.50
